Orbital Elements at Epoch 2459200.5 (2020-Dec-17.0) TDB
Reference: JPL 15 (heliocentric ecliptic J2000)
Element | Value | Uncertainty (1-sigma) | Units |
e | .1947615302653246 | 8.2098e-08 | |
a | 3.082324898586526 | 2.8107e-08 | au |
q | 2.482006584562903 | 2.5138e-07 | au |
i | 11.98451714055124 | 8.1149e-06 | deg |
node | 297.36098091 | 2.8744e-05 | deg |
peri | 212.6720407707506 | 3.1122e-05 | deg |
M | 192.9900366802831 | 1.7341e-05 | deg |
tp | 2460117.471691484314 (2023-Jun-21.97169148) | 0.00010373 | TDB |
period | 1976.587518329099 5.41 | 2.7036e-05 7.402e-08 | d yr |
n | .1821320820159406 | 2.4912e-09 | deg/d |
Q | 3.68264321261015 | 3.3581e-08 | au |
|
| | Orbit Determination Parameters
Additional Information
|